Regional Weather Roundup
Issued by NWS

Home | Current Version | Previous Version | Text Only | Print | Product List | Glossary Off
Versions: 1 2 3 4 5 6 7 8 9 10 11 12 13 14 15 16 17 18 19 20 21 22 23 24 25 26 27 28 29 30 31 32 33 34 35 36 37 38 39 40 41 42 43 44 45 46 47 48 49 50

000
ASUS45 KCYS 242210
RWRWY

WYOMING REGIONAL WEATHER ROUNDUP
NATIONAL WEATHER SERVICE CHEYENNE WY
300 PM MST WED DEC 24 2014

NOTE:  "FAIR" INDICATES FEW OR NO CLOUDS BELOW 12,000 FEET
WITH NO SIGNIFICANT WEATHER AND/OR OBSTRUCTIONS TO VISIBILITY.

WYZ001-242300-
YELLOWSTONE NATIONAL PARK

CITY           SKY/WX    TMP DP  RH WIND       PRES   REMARKS
LK YELLOWSTONE   N/A     22  18  85 CALM      29.63F
W YELLOWSTONE  NOT AVBL

$$
WYZ002>013-054>058-071-098>099-242300-
NORTHERN WYOMING

CITY           SKY/WX    TMP DP  RH WIND       PRES   REMARKS
JACKSON        CLOUDY    32  23  69 S23       29.66F WCI  19
CODY           FAIR      32  19  59 NE12      29.49F WCI  23
GREYBULL       PTSUNNY   27  18  69 CALM      29.57F
WORLAND        FAIR      21  15  78 S3        29.56F
SHERIDAN       PTSUNNY   37  28  70 N6        29.46S WCI  32
BUFFALO        PTSUNNY   36  23  59 W3        29.49F
GILLETTE       FAIR      39  22  50 SW15      29.49F WCI  31
HULETT           N/A    N/A N/A N/A MISG        N/A
NEWCASTLE      FAIR      36  21  55 SE3       29.56S

$$
WYZ014>020-022>026-101>103-242300-
CENTRAL WYOMING

CITY           SKY/WX    TMP DP  RH WIND       PRES   REMARKS
BIG PINEY      CLOUDY    28  18  66 E6        29.72F WCI  22
PINEDALE       CLOUDY    27  19  74 CALM      29.73F
DUBOIS         NOT AVBL
LANDER         FAIR      36  20  52 W8        29.58F WCI  30
RIVERTON       FAIR      28  16  60 N3        29.59F
CASPER         FAIR      34  21  59 SW22G31   29.61F WCI  22
DOUGLAS        FAIR      43  19  38 W12       29.57F

$$
WYZ021-027>030-104>119-242300-
SOUTHERN WYOMING

CITY           SKY/WX    TMP DP  RH WIND       PRES   REMARKS
EVANSTON       FAIR      36  23  59 SW17      29.72F WCI  26
KEMMERER       CLOUDY    32  21  64 CALM      29.73F
FORT BRIDGER   MOCLDY    39  26  59 W8        29.75F WCI  34
ROCK SPRINGS   FAIR      34  22  61 S8        29.75F WCI  27
DIXON          FAIR      29  15  54 S5        29.87F WCI  24
RAWLINS        FAIR      26  11  52 SW29G38   29.74F WCI  10
SARATOGA       FAIR      32  19  59 MISG      29.78F
LARAMIE        FAIR      32  16  51 SW29G36   29.66F WCI  18
CHEYENNE       FAIR      40  18  41 W28G38    29.60F WCI  29
TORRINGTON     FAIR      47  21  35 W18G29    29.59F
PINE BLUFFS    FAIR      43  19  39 SW6       29.65S

$$


USA.gov is the U.S. government's official web portal to all federal, state and local government web resources and services.